Regional Weather Roundup
Issued by NWS

Home | Current Version | Previous Version | Text Only | Print | Product List | Glossary On
Versions: 1 2 3 4 5 6 7 8 9 10 11 12 13 14 15 16 17 18 19 20 21 22 23 24 25 26 27 28 29 30 31 32 33 34 35 36 37 38 39 40 41 42 43 44 45 46 47 48 49 50
485
ASUS44 KEWX 291802
RWRTX
SOUTH TEXAS REGIONAL WEATHER ROUNDUP
NATIONAL WEATHER SERVICE AUSTIN/SAN ANTONIO TX
100 PM CDT THU SEP 29 2016

NOTE: "FAIR" INDICATED FEW OR NO CLOUDS BELOW 12,000 FEET WITH NO
SIGNIFICANT WEATHER AND/OR OBSTRUCTIONS TO VISIBILITY.

* - THESE STATIONS ARE NOT NWS OR FAA STATIONS...AND ARE NOT SUBJECT
    TO NWS AND FAA QUALITY CONTROL.

TXZ171-172-183>190-291900-
TEXAS HILL COUNTRY AND EDWARDS PLATEAU

CITY           SKY/WX    TMP DP  RH WIND       PRES   REMARKS
JUNCTION       SUNNY     80  54  40 E10       30.28F
6HR MIN TEMP:  53; 6HR MAX TEMP:  80;

*LLANO         SUNNY     79  55  44 NE5       30.30S
BURNET         SUNNY     79  52  38 NE10      30.28S
6HR MIN TEMP:  64; 6HR MAX TEMP:  79;

*HORSESHOE BAY SUNNY     80  54  39 N6        30.25F
6HR MIN TEMP:  58; 6HR MAX TEMP:  80;

*KERRVILLE     SUNNY     82  57  43 N7        30.26S
6HR MIN TEMP:  56; 6HR MAX TEMP:  82;

*FREDERICKSBRG SUNNY     79  52  38 NE8       30.27F
*ROCKSPRINGS   SUNNY     81  54  39 E8        30.31S
*BOERNE STAGE  SUNNY     79  55  44 N8        30.25S
*CASTROVILLE   SUNNY     86  54  33 NE9       30.22S
HONDO          SUNNY     89  57  33 E9        30.21F
6HR MIN TEMP:  64; 6HR MAX TEMP:  89;

*UVALDE        SUNNY     87  54  32 CALM      30.22S
6HR MIN TEMP:  65; 6HR MAX TEMP:  87;

DEL RIO        SUNNY     86  67  52 VRB5      30.20F
6HR MIN TEMP:  66; 6HR MAX TEMP:  86;

LAUGHLIN AFB   NOT AVBL
CARRIZO SPRGS  MOSUNNY   88  64  45 N7        30.17S
*EAGLE PASS    NOT AVBL
$$

TXZ173-191>194-202-209-217>225-228-291900-
CENTRAL AND SOUTH CENTRAL TEXAS

CITY           SKY/WX    TMP DP  RH WIND       PRES   REMARKS
GEORGETOWN     SUNNY     81  72  74 N16       30.21F
AUSTIN/BERGSTM MOSUNNY   82  56  40 N14G22    30.21S
6HR MIN TEMP:  58; 6HR MAX TEMP:  82;

AUSTIN/MABRY   SUNNY     82  56  40 N8        30.23S
6HR MIN TEMP:  64; 6HR MAX TEMP:  82;

*AUSTIN/EXEC   SUNNY     84  63  48 N14       30.22F HAZE
*LAGO VISTA    SUNNY     80  53  40 N13       30.25S
6HR MIN TEMP:  64; 6HR MAX TEMP:  81;

SAN MARCOS     SUNNY     82  61  47 N12G21    30.23F
NEW BRAUNFELS  SUNNY     85  57  38 NE9       30.19F
6HR MIN TEMP:  61; 6HR MAX TEMP:  85;

RANDOLPH AFB   SUNNY     83  60  45 NE9       30.20F
6HR MIN TEMP:  63; 6HR MAX TEMP:  83;

PT SAN ANTONIO SUNNY     84  60  43 NE12      30.18F
6HR MIN TEMP:  65; 6HR MAX TEMP:  84;

SAN ANTONIO    MOSUNNY   84  58  40 NE10      30.21F
6HR MIN TEMP:  64; 6HR MAX TEMP:  84;

STINSON FIELD  SUNNY     86  59  39 NE7G17    30.18F
6HR MIN TEMP:  67; 6HR MAX TEMP:  87;

*PLEASANTON    SUNNY     87  54  32 NE9       30.19F
6HR MIN TEMP:  66; 6HR MAX TEMP:  87;

*LA GRANGE     SUNNY     82  63  52 N6        30.17S
*GIDDINGS      SUNNY     80  59  48 N8        30.23S
*GONZALES      SUNNY     84  64  49 N8        30.17F
$$

TXZ163>164-176>182-195>201-210>213-226-227-235-291900-
SOUTHEAST TEXAS

CITY           SKY/WX    TMP DP  RH WIND       PRES   REMARKS
COLLEGE STN    SUNNY     80  58  46 N10       30.19F
6HR MIN TEMP:  64; 6HR MAX TEMP:  80;

*BRYAN         SUNNY     79  58  48 NE12      30.21F
*CALDWELL      NOT AVBL
*CROCKETT      NOT AVBL
*BRENHAM       SUNNY     83  58  42 NE8       30.19S
6HR MIN TEMP:  64; 6HR MAX TEMP:  83;

HUNTSVILLE     SUNNY     79  57  46 MISG      30.19F
6HR MIN TEMP:  58; 6HR MAX TEMP:  79;

CONROE         SUNNY     81  60  48 N8        30.17S
6HR MIN TEMP:  58; 6HR MAX TEMP:  81;

HOUSTON BUSH   MOSUNNY   82  61  48 N12G20    30.15F
6HR MIN TEMP:  65; 6HR MAX TEMP:  82;

HOUSTON HOBBY  MOSUNNY   85  63  47 N8        30.13F
6HR MIN TEMP:  67; 6HR MAX TEMP:  85;

*HOUSTON SW AP SUNNY     85  62  46 N7        30.14S
6HR MIN TEMP:  61; 6HR MAX TEMP:  85;

PEARLAND       SUNNY     87  59  38 NE10      30.14F
6HR MIN TEMP:  68; 6HR MAX TEMP:  87;

HOUSTON HOOKS  SUNNY     83  61  47 N9G16     30.15F
6HR MIN TEMP:  64; 6HR MAX TEMP:  83;

ELLINGTON FLD  SUNNY     84  63  48 N6        30.14S
SUGAR LAND     SUNNY     84  59  42 NE9       30.13F
6HR MIN TEMP:  61; 6HR MAX TEMP:  85;

*HOUSTON EXEC  SUNNY     82  61  47 N9        30.17S
*CLEVELAND MUN PTSUNNY   79  63  56 N9        30.17F
6HR MIN TEMP:  60; 6HR MAX TEMP:  80;

*WHARTON       SUNNY     87  59  39 N7        30.14F
*COLUMBUS      FAIR      84  62  46 N8        30.17S
6HR MIN TEMP:  62; 6HR MAX TEMP:  84;

*EAGLE LAKE    CLEAR     85  61  44 NE10G16   30.15S
6HR MIN TEMP:  61; 6HR MAX TEMP:  85;

$$

TXZ214>216-236>238-291900-
THE UPPER TEXAS COAST

CITY           SKY/WX    TMP DP  RH WIND       PRES   REMARKS
*ORANGE        SUNNY     79  58  48 N9        30.14F
6HR MIN TEMP:  60; 6HR MAX TEMP:  79;

PORT ARTHUR    SUNNY     82  63  52 N10       30.12F
6HR MIN TEMP:  60; 6HR MAX TEMP:  82;

GALVESTON      SUNNY     81  67  62 N14       30.13F
6HR MIN TEMP:  73; 6HR MAX TEMP:  82;

ANGLETON       SUNNY     88  64  44 N8        30.12F
6HR MIN TEMP:  64; 6HR MAX TEMP:  88;

*BAY CITY      SUNNY     85  64  49 NW6       30.13F
PALACIOS       SUNNY     88  61  40 N8        30.12F
6HR MIN TEMP:  68; 6HR MAX TEMP:  89;

$$

TXZ229>234-239>247-291900-
TEXAS COASTAL BEND AND RIO GRANDE PLAINS

CITY           SKY/WX    TMP DP  RH WIND       PRES   REMARKS
VICTORIA       SUNNY     89  54  30 VRB7      30.14F
6HR MIN TEMP:  62; 6HR MAX TEMP:  89;

*BEEVILLE      SUNNY     88  63  42 NE9       30.15F
6HR MIN TEMP:  69; 6HR MAX TEMP:  88;

ROCKPORT       SUNNY     91  60  35 NE8G17    30.13S HX  90
6HR MIN TEMP:  75; 6HR MAX TEMP:  91;

*PORT ARANSAS  SUNNY     87  63  44 NE12      30.14S
6HR MIN TEMP:  76; 6HR MAX TEMP:  87;

*PORT LAVACA   SUNNY     88  64  45 N8        30.13F
6HR MIN TEMP:  66; 6HR MAX TEMP:  88;

*INGLESIDE     SUNNY     89  67  46 NE9       30.14R HX  92
CORPUS CHRISTI MOSUNNY   90  65  43 NE9       30.14S HX  92
6HR MIN TEMP:  72; 6HR MAX TEMP:  90;

CORPUS NAS     MOSUNNY   89  70  53 NE9       30.14S HX  94
6HR MIN TEMP:  76; 6HR MAX TEMP:  89;

*ROBSTOWN      SUNNY     90  63  40 N7        30.14F HX  90
6HR MIN TEMP:  72; 6HR MAX TEMP:  90;

ALICE          SUNNY     90  63  40 NE9       30.14F HX  91
6HR MIN TEMP:  70; 6HR MAX TEMP:  90;

KINGSVILLE NAS MOSUNNY   90  67  46 N10G16    30.13F HX  93
6HR MIN TEMP:  70; 6HR MAX TEMP:  91;

COTULLA        MOSUNNY   91  61  36 VRB3      30.17F HX  91
6HR MIN TEMP:  71; 6HR MAX TEMP:  91;

*FAITH RANCH     N/A    N/A N/A N/A MISG        N/A
LAREDO         SUNNY     89  67  47 N8        30.16F HX  92
6HR MIN TEMP:  71; 6HR MAX TEMP:  90; 6HR PCP:  0.18;

$$

TXZ248>255-291900-
DEEP SOUTH TEXAS

CITY           SKY/WX    TMP DP  RH WIND       PRES   REMARKS
BROWNSVILLE    CLOUDY    85  75  72 N9        30.12S HX  93
6HR MIN TEMP:  76; 6HR MAX TEMP:  87; 6HR PCP:  0.12;

PORT ISABEL    CLOUDY    85  76  74 NE15      30.11F HX  94
6HR MIN TEMP:  75; 6HR MAX TEMP:  85; 6HR PCP: TRACE;

*SOUTH PADRE     N/A     88  75  66 NE13      30.12S VSB 1/2 HX  97
HARLINGEN      CLOUDY    89  73  59 NE13      30.11F HX  97
6HR MIN TEMP:  74; 6HR MAX TEMP:  91;

*HEBBRONVILLE  SUNNY     87  60  39 E8        30.17F
MCALLEN        MOSUNNY   94  68  42 MISG      30.12F HX  98
6HR MIN TEMP:  77; 6HR MAX TEMP:  94;

*WESLACO C1F1C2F2C3F3C4F4C5F5C6F6C7M1C8M2C9!



USA.gov is the U.S. government's official web portal to all federal, state and local government web resources and services.